Regional Weather Roundup
Issued by NWS

Home | Current Version | Previous Version | Text Only | Print | Product List | Glossary Off
Versions: 1 2 3 4 5 6 7 8 9 10 11 12 13 14 15 16 17 18 19 20 21 22 23 24 25 26 27 28 29 30 31 32 33 34 35 36 37 38 39 40 41 42 43 44 45 46 47 48 49 50

000
ASUS43 KMKX 120520
RWRWI

WISCONSIN REGIONAL WEATHER ROUNDUP
NATIONAL WEATHER SERVICE MILWAUKEE/SULLIVAN WI
1100 PM CST THU FEB 11 2016

NOTE: "FAIR" INDICATES FEW OR NO CLOUDS BELOW 12,000 FEET WITH NO
SIGNIFICANT WEATHER AND/OR OBSTRUCTIONS TO VISIBILITY.

WIZ001-002-006>008-014>016-023>028-120600-
NORTHWEST WISCONSIN

CITY           SKY/WX    TMP DP  RH WIND       PRES   REMARKS
SUPERIOR ARPT  CLOUDY    14   0  55 W10       30.18S WCI   1
ASHLAND        CLOUDY    12   0  58 W7        30.14F WCI   1
HAYWARD        CLOUDY    12   0  58 W6        30.13F WCI   3
SIREN          CLOUDY    13   7  74 W8        30.18F WCI   2
CUMBERLAND     CLOUDY    12   5  73 W9        30.16S WCI   0
RICE LAKE      CLOUDY    13   4  66 W7        30.18S WCI   3
CHETEK         CLOUDY    13   3  63 CALM      30.18S
LADYSMITH      CLOUDY    13   3  64 W9        30.15F WCI   1
EAU CLAIRE     CLOUDY    14   3  61 W8        30.19F WCI   3
MENOMONIE      CLOUDY    16   5  63 W6        30.20S WCI   7
NEW RICHMOND   FLURRIES  14   8  77 W7        30.20S WCI   4
OSCEOLA        FLURRIES  15  10  81 W6        30.24S WCI   6
$$

WIZ003>005-009-010-017-018-120600-
NORTH CENTRAL WISCONSIN

CITY           SKY/WX    TMP DP  RH WIND       PRES   REMARKS
MANITOWISH WTR CLOUDY     9  -3  59 W9        30.04F WCI  -5
ARBOR VITAE    CLOUDY    11  -2  56 W6        30.05F WCI   2
WOODRUFF       CLOUDY    11  -2  56 W6        30.05F WCI   2
RHINELANDER    CLOUDY    10  -3  55 W13       30.06F WCI  -5
EAGLE RIVER    CLOUDY    10  -6  48 W13G18    30.03F WCI  -5
LAND O LAKES   CLOUDY    10  -3  55 W7        30.03F WCI  -1
PHILLIPS       CLOUDY    10  -1  60 W3        30.09S
TOMAHAWK       CLOUDY    10  -2  57 W8        30.09F WCI  -1
MEDFORD        CLOUDY    11   0  60 W8        30.10F WCI  -1
MERRILL        CLOUDY    12  -1  54 W7        30.11F WCI   1
$$

WIZ029-030-035-036-043>047-120600-
CENTRAL WISCONSIN

CITY           SKY/WX    TMP DP  RH WIND       PRES   REMARKS
WAUSAU         CLOUDY    14   0  53 W14       30.11F WCI  -1
MOSINEE        CLOUDY    12   1  62 CALM      30.13F
MARSHFIELD     CLOUDY    14  -1  51 W10       30.13F WCI   1
STEVENS POINT  CLOUDY    13  -2  51 W5        30.15F WCI   5
WAUPACA        CLOUDY    17   0  46 W9        30.16F WCI   6
WAUTOMA        CLOUDY    15  -1  49 SW8       30.18F WCI   4
WISC RAPIDS    CLOUDY    14  -2  49 W9        30.17F WCI   2
CAMP DOUGLAS   CLOUDY    14   2  58 W9        30.18F WCI   2
$$

WIZ011>013-019>022-031-037>040-048>050-120600-
NORTHEAST WISCONSIN

CITY           SKY/WX    TMP DP  RH WIND       PRES   REMARKS
ANTIGO         CLOUDY    10  -2  56 W12G18    30.08F WCI  -4
SHAWANO        CLOUDY    17  -1  44 W8        30.14F WCI   7
OCONTO         CLOUDY    15  -1  50 W10       30.13F WCI   2
STURGEON BAY   CLOUDY    14  -2  48 W14       30.13F WCI  -1
GREEN BAY      CLOUDY    15   0  51 SW7       30.15F WCI   5
MANITOWOC      CLOUDY    16   1  51 W14       30.17F WCI   2
APPLETON       CLOUDY    16  -2  45 SW9       30.13F WCI   4
CLINTONVILLE   CLOUDY    16   0  48 W9        30.14F WCI   4
OSHKOSH        CLOUDY    15  -1  49 W8        30.17F WCI   4
$$

WIZ032>034-041-042-053>061-120600-
SOUTHWEST WISCONSIN

CITY           SKY/WX    TMP DP  RH WIND       PRES   REMARKS
LA CROSSE      CLOUDY    15   1  53 W5        30.24F WCI   8
SPARTA         CLOUDY    14   2  58 SW3       30.22F
VIROQUA        CLOUDY    12   4  70 W7        30.18F WCI   1
BOSCOBEL       CLOUDY    15   3  59 SW3       30.26F
PRAIRIE DU CHI CLOUDY    14   4  62 W3        30.26S
PLATTEVILLE    CLOUDY    14   6  70 SW5       30.21F WCI   6
$$

WIZ056-057-062-063-064-067-068-120600-
SOUTH CENTRAL WISCONSIN

CITY           SKY/WX    TMP DP  RH WIND       PRES   REMARKS
REEDSBURG      CLOUDY    15   1  56 W7        30.21S WCI   5
BARABOO/DELLS  CLOUDY    14   1  56 W6        30.20F WCI   5
LONE ROCK      CLOUDY    15   2  56 W8        30.24F WCI   4
MINERAL POINT  CLOUDY    16   5  62 W5        30.20F WCI   9
MADISON        CLOUDY    16   0  49 VRB6      30.20F WCI   7
MIDDLETON      CLOUDY    17   2  52 W7        30.20F WCI   8
WATERTOWN      CLOUDY    16   3  56 SW7       30.20F WCI   6
MONROE         CLOUDY    16   5  62 SW9       30.20F WCI   4
JANESVILLE     CLOUDY    19   5  53 CALM      30.23F
$$

WIZ051-052-058>065-066-070>072-120600-
SOUTHEAST WISCONSIN

CITY           SKY/WX    TMP DP  RH WIND       PRES   REMARKS
MILWAUKEE      CLOUDY    16   1  51 W7        30.22F WCI   6
WAUKESHA       CLOUDY    14   0  52 W7        30.21F WCI   4
MILWAUKEE/TIMM CLOUDY    18   0  45 W7        30.21F WCI   8
RACINE         CLOUDY    17   4  56 W8        30.24F WCI   7
BURLINGTON     CLOUDY    15   4  60 W6        30.22F WCI   7
KENOSHA        CLOUDY    17   6  62 W7        30.23F WCI   8
FOND DU LAC    CLOUDY    14   2  58 SW8       30.19F WCI   3
SHEBOYGAN      CLOUDY    16   0  49 W13       30.17F WCI   2
WEST BEND      CLOUDY    14   1  57 CALM      30.18F
JUNEAU         CLOUDY    14   4  63 SW9       30.20F WCI   2
$$

LSZ147-162-120600-
LAKE SUPERIOR

STATION/POSITION TIME  TEMP    WIND        PRES    WAVE
                       AIR SEA DIR/SP/G            HT/PER
                 (UTC) (F)     (DEG/KT/KT) (MB)    (FT/S)
DEVILS ISLAND    0500   15     290/ 22/ 27 1021.2F
PORT WING        0440   16     300/ 15/ 21 1021.0F
SAXON HARBOR     0400   14                 1020.7S
$$

LMZ867-665-643>646-120600-
LAKE MICHIGAN

STATION/POSITION TIME  TEMP    WIND        PRES    WAVE
                       AIR SEA DIR/SP/G            HT/PER
                 (UTC) (F)     (DEG/KT/KT) (MB)    (FT/S)
CHAMBERS ISLAND  0400   16     230/ 10/ 18 1020.0F
ALGOMA LAKESHORE 0441          250/  8/ 17   N/A
KEWAUNEE LAKESHO 0400   15     270/  6/ 10 1020.5F
SHEBOYGAN LAKESH 0500   17     260/ 10/ 13 1023.5F
PORT WASHINGTON  0440   16     260/  6/ 14 1023.7F
MILWAUKEE LAKESH 0410   17     270/ 12/ 14   N/A
KENOSHA   LAKESH 0500   17     250/  8/ 10 1023.7F
$$

TC  - TEMPERATURE IN CELSIUS
VSB - VISIBILITY IN STATUTE MILES
WCI - WIND CHILL INDEX
HX  - HEAT INDEX




USA.gov is the U.S. government's official web portal to all federal, state and local government web resources and services.